This demonstration page uses our WeatherBlox Daily Observations layout. Learn more.

Left ArrowRight Arrow

Hourly Observations for August 8, 2017

Temp ( °F °C ) Dew Point ( °F °C ) Humidity (%) Winds ( mph kmh ) Pressure ( in mb ) Visibility ( mi km ) Precip ( " mm )
12:51 am 00:51 Clear 73 22.8 45 7.2 37 37 WNW 8 13 29.82 1010 10 16.0934 0 0
1:51 am 01:51 Clear 74 23.3 44 6.7 34 34 NE 6 9 29.81 1010 10 16.0934 0 0
2:51 am 02:51 Clear 71 21.7 46 7.8 41 41 WNW 3 6 29.82 1010 10 16.0934 0 0
3:51 am 03:51 Clear 67 19.4 48 8.9 51 51 ENE 3 6 29.84 1011 10 16.0934 0 0
4:51 am 04:51 Partly Cloudy 66 18.9 50 10 56 56 SSE 5 7 29.85 1011 10 16.0934 0 0
5:51 am 05:51 Sunny 68 20 48 8.9 49 49 SE 5 7 29.88 1012 10 16.0934 0 0
6:51 am 06:51 Sunny 72 22.2 53 11.7 52 52 Calm 29.89 1012 10 16.0934 0 0
7:51 am 07:51 Sunny 76 24.4 53 11.7 45 45 WSW 5 7 29.91 1013 10 16.0934 0 0
8:51 am 08:51 Sunny 86 30 47 8.3 26 26 E 8 13 29.9 1013 10 16.0934 0 0
9:51 am 09:51 Sunny 88 31.1 54 12.2 31 31 SE 8 13 29.9 1012 10 16.0934 0 0
10:51 am 10:51 Sunny 90 32.2 51 10.6 26 26 SE 6 9 29.89 1012 10 16.0934 0 0
11:51 am 11:51 Mostly Sunny 93 33.9 51 10.6 24 24 ESE 3 6 29.87 1011 10 16.0934 0 0
12:51 pm 12:51 Sunny 94 34.4 51 10.6 23 23 VRB 6 9 29.85 1011 10 16.0934 0 0
1:51 pm 13:51 Sunny 96 35.6 52 11.1 23 23 S 10 17 29.82 1010 10 16.0934 0 0
2:51 pm 14:51 Sunny 96 35.6 52 11.1 23 23 SSW 7 11 29.8 1009 10 16.0934 0 0
3:51 pm 15:51 Sunny 97 36.1 49 9.4 20 20 SW 3 6 29.78 1009 10 16.0934 0 0
4:51 pm 16:51 Sunny 97 36.1 49 9.4 20 20 W 9 15 29.76 1008 10 16.0934 0 0
5:51 pm 17:51 Sunny 97 36.1 47 8.3 18 18 NW 10 17 29.75 1007 10 16.0934 0 0
6:51 pm 18:51 Sunny 93 33.9 48 8.9 21 21 W 6 9 29.75 1007 10 16.0934 0 0
7:51 pm 19:51 Clear 86 30 53 11.7 32 32 N 7 11 29.75 1008 10 16.0934 0 0
8:51 pm 20:51 Clear 83 28.3 52 11.1 34 34 N 7 11 29.77 1008 10 16.0934 0 0
9:51 pm 21:51 Clear 82 27.8 52 11.1 35 35 N 8 13 29.78 1009 10 16.0934 0 0
10:51 pm 22:51 Clear 79 26.1 53 11.7 41 41 SE 3 6 29.79 1009 10 16.0934 0 0
11:51 pm 23:51 Mostly Clear 76 24.4 54 12.2 47 47 Calm 29.8 1009 10 16.0934 0 0

Powered by AerisWeather